Flag for Colombia Weather past 2 weeks in Manizales, Colombia

Now
79 °F

Scattered clouds.


Feels Like: 81 °F
Forecast: N/A
Wind: 2 mph from North

Location: Pereira / Matecana

Current Time: Jul 23, 2014 at 5:29:08 PM

Latest Report: Jul 23, 2014 at 5:00 PM


Visibility: N/A

Pressure: 29.95 "Hg

Humidity: 61%

Dew point: 64 °F

Location of ManizalesLocation

Historic Weather in Manizales — Graph

°F

Manizales temperature yesterday

Maximum temperature yesterday: 79 °F (at 12:00 PM)
Minimum temperature yesterday: 68 °F (at 5:00 AM)
Average temperature yesterday: 72 °F

Past Weeks' High & Low Weather Summary

 TemperatureHumidityPressure
High88 °F (Jul 19, 4:00 PM)94% (Jul 23, 5:00 AM)30.17 "Hg (Jul 23, 5:00 AM)
Low64 °F (Jul 20, 7:00 AM)40% (Jul 16, 4:00 PM)29.94 "Hg (Jul 11, 4:00 PM)
Average75 °F69%30.06 "Hg
* Reported Jul 8 4:00 PM — Jul 23 4:00 PM, Manizales, Weather by CustomWeather, © 2014

Note: Actual official high and low records may vary slightly from our data, if they occured in-between our weather recording intervals... More about our weather records

Advertising

Manizales weather history for previous 24 hours

 ConditionsComfort  
Time TempWeatherWind HumidityBarometerVisibility
4:00 PM
Jul 23
79 °FScattered clouds.3 mph61%29.94 "HgN/A
3:00 PM81 °FScattered clouds.7 mph62%29.97 "HgN/A
2:00 PM84 °FScattered clouds.6 mph51%30.00 "HgN/A
1:00 PM81 °FScattered clouds.7 mph58%30.03 "HgN/A
12:00 PM79 °FPassing clouds.7 mph61%30.04 "HgN/A
11:00 AM77 °FScattered clouds.2 mph65%30.07 "HgN/A
10:00 AM73 °FScattered clouds.5 mph74%30.11 "HgN/A
9:00 AM70 °FScattered clouds.2 mph78%30.11 "HgN/A
8:00 AM68 °FPassing clouds.2 mph83%30.10 "HgN/A
7:00 AM66 °FPassing clouds.3 mph88%30.09 "HgN/A
6:00 AM68 °FScattered clouds.2 mph88%30.05 "HgN/A
5:00 AM68 °FFog.No wind94%30.05 "Hg1 mi
12:00 AM72 °FPassing clouds.5 mph78%30.08 "HgN/A
11:00 PM
Jul 22
72 °FPassing clouds.2 mph78%30.09 "HgN/A
10:00 PM72 °FPassing clouds.5 mph78%30.08 "HgN/A
9:00 PM72 °FPassing clouds.6 mph73%30.06 "HgN/A
8:00 PM73 °FThunderstorms. Passing clouds.2 mph69%30.03 "Hg6 mi
7:00 PM77 °FThunderstorms. Passing clouds.6 mph57%30.00 "Hg6 mi
Weather by CustomWeather, © 2014

See weather overviewHow to use our weather pages